Back to catalog

COSMOS 839 DEB

AliveUNKNOWN
NORAD 21128·DEBRIS·🇷🇺 Russia

Launched Jul 8, 1976 from Plesetsk Cosmodrome

Loading…

Next Passes (next 24 hours)

TLE

FreshSource: Space-Track

Epoch: Sep 13, 2026, 11:30 UTC

1 21128U 76067BY  26256.47976130 -.00000286  00000-0 -77024-3 0  9999
2 21128  66.0401  37.9558 0666340  40.7327  19.0013 12.42242008627563

Track COSMOS 839 DEB in real time with AllMySat

Download on the App Store